Andrews, NC

11:19 PM EDT on August 26, 2016 (GMT -0400)
Andrews

Weather History for KRHP - April, 2013

Change the Weather History Date:

Tuesday, April 30, 2013

  Actual Average (KTYS) Record (KTYS)
Temperature  
Mean Temperature 59 °F 63 °F  
Max Temperature 77 °F 74 °F 92 °F (1942)
Min Temperature 41 °F 52 °F 35 °F (1988)
Degree Days  
Heating Degree Days 6 4  
Month to date heating degree days 219  
Since 1 July heating degree days 3575  
Cooling Degree Days 0 2  
Month to date cooling degree days 32  
Year to date cooling degree days 37  
Growing Degree Days 9 (Base 50)    
Moisture  
Dew Point 50 °F    
Average Humidity 75    
Maximum Humidity 100    
Minimum Humidity 39    
Precipitation  
Precipitation 0.00 in 0.13 in 2.05 in (1909)
Month to date precipitation 4.01  
Year to date precipitation 16.93  
Snow  
Snow 0.00 in 0.00 in - ()
Month to date snowfall 0.5  
Since 1 July snowfall 6.5  
Snow Depth -    
Sea Level Pressure  
Sea Level Pressure 30.05 in    
Wind  
Wind Speed 1 mph (WSW)    
Max Wind Speed 10 mph    
Max Gust Speed 12 mph    
Visibility 8 miles    
Events Fog    
T = Trace of Precipitation, MM = Missing Value Source: NWS Daily Summary

Daily Weather History Graph

Daily Weather History Graph

Search for Another Location

Airport or City:

Trip Planner

Search our weather history database for the weather conditions in past years. The results will help you decide how hot, cold, wet, or windy it might be!

Date:

Astronomy

Apr. 30, 2013 Rise Set
Actual Time 6:45 AM EDT 8:20 PM EDT
Civil Twilight 6:18 AM EDT 8:47 PM EDT
Nautical Twilight 5:45 AM EDT 9:20 PM EDT
Astronomical Twilight 5:11 AM EDT 9:54 PM EDT
Moon 12:40 AM EDT (4/30) 11:14 AM EDT (4/30)
Length of Visible Light 14h 29m
Length of Day
13h 35m
Waning Gibbous, 70% of the Moon is Illuminated
Apr 30
Waning Gibbous
May 2
Last Quarter
May 9
New
May 18
First Quarter
May 25
Full

Hourly Weather History & Observations

Time (EDT) Temp. Dew Point Humidity Pressure Visibility Wind Dir Wind Speed Gust Speed Precip Events Conditions
12:15 AM 50.4 °F 49.8 °F 98% 30.03 in 10.0 mi Calm Calm - N/A   Clear
12:35 AM 49.6 °F 49.3 °F 99% 30.03 in 1.5 mi Calm Calm - N/A   Mist
12:55 AM 47.1 °F 46.6 °F 98% 30.03 in 7.0 mi Calm Calm - N/A   Clear
1:15 AM 48.0 °F 47.7 °F 99% 30.03 in 2.0 mi Calm Calm - N/A   Clear
1:35 AM 47.1 °F 46.9 °F 99% 30.03 in 7.0 mi Calm Calm - N/A   Clear
1:55 AM 46.6 °F 46.0 °F 98% 30.01 in 7.0 mi Calm Calm - N/A   Clear
2:15 AM 46.6 °F 46.4 °F 99% 30.01 in 1.2 mi Calm Calm - N/A   Scattered Clouds
2:35 AM 46.9 °F 46.8 °F 99% 30.01 in 1.0 mi Calm Calm - N/A   Scattered Clouds
2:55 AM 45.1 °F 45.0 °F 99% 30.00 in 10.0 mi Calm Calm - N/A   Scattered Clouds
3:15 AM 46.0 °F 45.7 °F 99% 30.01 in 5.0 mi Calm Calm - N/A   Clear
3:35 AM 43.7 °F 43.3 °F 99% 30.01 in 0.8 mi Calm Calm - N/A   Mostly Cloudy
3:55 AM 45.0 °F 44.8 °F 99% 30.01 in 7.0 mi Calm Calm - N/A   Scattered Clouds
4:15 AM 44.1 °F 43.7 °F 99% 30.02 in 4.0 mi Calm Calm - N/A   Scattered Clouds
4:35 AM 43.2 °F 42.8 °F 99% 30.03 in 0.5 mi Calm Calm - N/A Fog Fog
4:55 AM 43.0 °F 42.8 °F 99% 30.03 in 1.8 mi Calm Calm - N/A   Mostly Cloudy
5:15 AM 43.7 °F 43.5 °F 99% 30.04 in 0.2 mi Calm Calm - N/A Fog Fog
5:35 AM 41.7 °F 41.7 °F 100% 30.04 in 0.5 mi Calm Calm - N/A Fog Fog
5:55 AM 43.0 °F 42.8 °F 99% 30.04 in 0.8 mi Calm Calm - N/A   Mostly Cloudy
6:15 AM 42.6 °F 42.6 °F 100% 30.05 in 0.2 mi Calm Calm - N/A Fog Fog
6:35 AM 42.3 °F 42.3 °F 100% 30.05 in 0.8 mi Calm Calm - N/A   Mostly Cloudy
6:55 AM 41.4 °F 41.2 °F 99% 30.06 in 0.5 mi Calm Calm - N/A Fog Fog
7:15 AM 42.6 °F 42.6 °F 100% 30.07 in 0.5 mi Calm Calm - N/A Fog Fog
7:35 AM 43.2 °F 43.2 °F 100% 30.08 in 1.5 mi Calm Calm - N/A   Mist
7:55 AM 44.6 °F 44.6 °F 100% 30.08 in 7.0 mi Calm Calm - N/A   Clear
8:15 AM 46.6 °F 46.0 °F 98% 30.09 in 10.0 mi Calm Calm - N/A   Clear
8:35 AM 49.1 °F 47.7 °F 95% 30.09 in 10.0 mi Calm Calm - N/A   Clear
8:55 AM 50.9 °F 49.1 °F 94% 30.09 in 10.0 mi Calm Calm - N/A   Clear
9:15 AM 52.2 °F 50.2 °F 93% 30.09 in 10.0 mi Calm Calm - N/A   Clear
9:35 AM 54.5 °F 52.0 °F 91% 30.09 in 10.0 mi Calm Calm - N/A   Clear
9:55 AM 57.6 °F 52.7 °F 84% 30.08 in 10.0 mi Calm Calm - N/A   Clear
10:15 AM 61.2 °F 52.9 °F 74% 30.08 in 10.0 mi Calm Calm - N/A   Clear
10:35 AM 64.0 °F 54.0 °F 70% 30.08 in 10.0 mi WSW 4.6 mph - N/A   Clear
10:55 AM 66.4 °F 53.2 °F 63% 30.08 in 10.0 mi SW 4.6 mph - N/A   Clear
11:15 AM 68.4 °F 53.8 °F 60% 30.08 in 10.0 mi West 5.8 mph - N/A   Clear
11:35 AM 69.1 °F 53.8 °F 58% 30.08 in 10.0 mi West 5.8 mph - N/A   Clear
11:55 AM 69.4 °F 53.8 °F 57% 30.08 in 10.0 mi WNW 3.5 mph - N/A   Clear
12:15 PM 70.9 °F 55.9 °F 59% 30.07 in 10.0 mi West 8.1 mph - N/A   Clear
12:35 PM 70.7 °F 54.7 °F 57% 30.07 in 10.0 mi West 6.9 mph - N/A   Clear
12:55 PM 71.6 °F 54.1 °F 54% 30.06 in 10.0 mi West 5.8 mph - N/A   Clear
1:15 PM 72.7 °F 56.5 °F 57% 30.05 in 10.0 mi WNW 6.9 mph - N/A   Clear
1:35 PM 73.2 °F 54.7 °F 52% 30.04 in 10.0 mi WNW 5.8 mph - N/A   Clear
1:55 PM 73.4 °F 49.8 °F 43% 30.03 in 10.0 mi Calm Calm - N/A   Clear
2:15 PM 73.9 °F 53.4 °F 49% 30.02 in 10.0 mi WSW 3.5 mph - N/A   Clear
2:35 PM 74.3 °F 55.0 °F 51% 30.01 in 10.0 mi West 5.8 mph - N/A   Clear
2:55 PM 75.7 °F 53.2 °F 45% 30.01 in 10.0 mi West 10.4 mph - N/A   Scattered Clouds
3:15 PM 76.1 °F 53.8 °F 46% 30.01 in 10.0 mi West 4.6 mph - N/A   Mostly Cloudy
3:35 PM 75.9 °F 50.7 °F 41% 30.01 in 10.0 mi Calm Calm - N/A   Mostly Cloudy
3:55 PM 77.4 °F 50.7 °F 39% 30.01 in 10.0 mi West 5.8 mph 11.5 mph N/A   Mostly Cloudy
4:15 PM 77.5 °F 51.8 °F 41% 30.01 in 10.0 mi South 4.6 mph - N/A   Mostly Cloudy
4:35 PM 77.9 °F 53.6 °F 43% 30.02 in 10.0 mi WSW 10.4 mph - N/A   Overcast
4:55 PM 75.6 °F 51.4 °F 43% 30.03 in 10.0 mi SW 5.8 mph - N/A   Overcast
5:15 PM 74.5 °F 52.3 °F 46% 30.03 in 10.0 mi SW 6.9 mph - N/A   Overcast
5:35 PM 75.4 °F 52.2 °F 44% 30.03 in 10.0 mi South 3.5 mph - N/A   Overcast
5:55 PM 75.2 °F 52.9 °F 46% 30.03 in 10.0 mi SW 4.6 mph - N/A   Mostly Cloudy
6:15 PM 75.2 °F 52.5 °F 45% 30.04 in 10.0 mi South 8.1 mph - N/A   Mostly Cloudy
6:35 PM 74.7 °F 53.2 °F 47% 30.04 in 10.0 mi South 4.6 mph - N/A   Scattered Clouds
6:55 PM 73.6 °F 52.2 °F 47% 30.04 in 10.0 mi SW 5.8 mph - N/A   Clear
7:15 PM 72.9 °F 52.3 °F 48% 30.05 in 10.0 mi SSW 3.5 mph - N/A   Clear
7:35 PM 71.6 °F 53.4 °F 53% 30.06 in 10.0 mi SW 4.6 mph - N/A   Scattered Clouds
7:55 PM 68.5 °F 54.7 °F 61% 30.06 in 10.0 mi Calm Calm - N/A   Mostly Cloudy
8:15 PM 67.5 °F 54.3 °F 63% 30.06 in 10.0 mi Calm Calm - N/A   Mostly Cloudy
8:35 PM 64.9 °F 54.7 °F 69% 30.07 in 10.0 mi Calm Calm - N/A   Mostly Cloudy
8:55 PM 64.0 °F 54.7 °F 72% 30.08 in 10.0 mi Calm Calm - N/A   Overcast
9:15 PM 62.2 °F 55.6 °F 79% 30.09 in 10.0 mi Calm Calm - N/A   Overcast
9:35 PM 63.0 °F 55.0 °F 75% 30.09 in 10.0 mi Calm Calm - N/A   Overcast
9:55 PM 60.8 °F 54.7 °F 80% 30.10 in 10.0 mi Calm Calm - N/A   Mostly Cloudy
10:15 PM 59.9 °F 54.7 °F 83% 30.11 in 10.0 mi Calm Calm - N/A   Scattered Clouds
10:35 PM 59.9 °F 55.0 °F 84% 30.12 in 10.0 mi Calm Calm - N/A   Mostly Cloudy
11:15 PM 60.6 °F 55.8 °F 84% 30.13 in 10.0 mi Calm Calm - N/A   Overcast
11:35 PM 60.4 °F 55.0 °F 82% 30.14 in 10.0 mi Calm Calm - N/A   Overcast
11:55 PM 58.6 °F 55.4 °F 89% 30.14 in 10.0 mi Calm Calm - N/A   Overcast